CZ-4 DEB, 26260

Orbit data source: Space-Track

CZ-4 DEB, 26260 is space debris in SSO originally from a launch on Thu, 14 Oct 1999 UTC launched from the Taiyaun Space Center, China (TSC). Debris objects in space refer to the collection of defunct objects orbiting the Earth. Examples of debris include non-operational satellites, rocket bodies, and fragments generated from explosions, collisions, or faulty payload assembly.

Loading next visibility...
Identifier
26260, 1999-057EW
Orbit
SSO
Country
Flag of CNCN / PRC
Related business
Manufacturer
Unknown
Mission
Spacecraft
Bus & Motor
Unknown
Mass
Unknown
Launch date (UTC)
1999-10-14 (26 years ago)
Launch vehicle
Unknown
Launch site
Taiyaun Space Center, China (TSC)
Object type
Payload
Rocket body
Debris
Shape & HBR
Unknown shape, 0.1 m
Radar Cross Section
Small (<0.1 m²)

Expand to show TLE details & history
Last TLE update: 1 day ago

TLE from 1 day ago
0 CZ-4 DEB
1 26260U 99057EW  25296.16296709  .00011125  00000-0  16726-2 0  9994
2 26260  98.3601  10.0221 0059590  32.9670 327.5231 14.73454724349141
Epoch: 2025-10-23T03:54Z
TLE epoch observation values (Epoch: 2025-10-23T03:54:40.356Z)
Latitude
0.00004°
Longitude
-80.47223°
Altitude
617.793 km
Speed
7.569 km/s
True Right ascension
00h 40m 05s
True Declination
0° 00' 00"
Sunlit
Object was in full shadow at epoch
Visualization orbit readout
Latitude
Unknown
Longitude
Unknown
Altitude
Unknown
Speed
Unknown
Apparent Right ascension
Unknown
Apparent Declination
Unknown
Sunlit
N/A
Visualization observer readout
Local Sidereal Time
04:07:51
Azimuth
Unknown
Elevation
Unknown
Doppler factor
Unknown
Orbital elements
Apogee altitude
688.995 km
Perigee altitude
605.268 km
Semi-major axis
7,025.268 km
Eccentricity
0.00596
Inclination
98.3601°
RAAN
10.0221°
Arg. of periapsis
32.967°
True anomaly
327.15412°
Mean anomaly
327.5231°
Eccentric anomaly
327.33884°
Mean motion
3.68594 °/min
Orbital period
97.67 mins
BSTAR
0.0016726
Loading maneuver chart data...
Computing Atmospheric mass density...
Loading historical data...
Loading historical data...
Loading historical data...
Loading historical data...
Loading historical data...
Loading historical data...
Loading historical data...

Documentation

Showing up to 5 results
|